• In Uzbekistan
  • List of Countries
  • For 7 days
  • Water Temperature
  • Satellite Maps
  • Weather Map
  • Weather Widgets
  • user-avatar
    Login

    Hourly Weather Linz

    Today, 20 October, Friday

    Time Temperature Precipitation Wind Pressure Humidity
    00:00 +11°C° 0 mm 1 mps 733 mmHg 74%
    01:00 +11°C° 0 mm 1 mps 733 mmHg 74%
    02:00 +11°C° 0 mm 1 mps 733 mmHg 73%
    03:00 +11°C° 0 mm 1 mps 733 mmHg 73%
    04:00 +10°C° 0 mm 1 mps 733 mmHg 73%
    05:00 +10°C° 0 mm 1 mps 733 mmHg 73%
    06:00 +10°C° 0 mm 1 mps 733 mmHg 73%
    07:00 +10°C° 0 mm 1 mps 733 mmHg 72%
    08:00 +13°C° 0 mm 1 mps 733 mmHg 66%
    09:00 +15°C° 0 mm 1 mps 734 mmHg 59%
    10:00 +18°C° 0 mm 1 mps 734 mmHg 53%
    11:00 +19°C° 0 mm 1 mps 734 mmHg 51%
    12:00 +20°C° 0 mm 1 mps 734 mmHg 49%
    13:00 +21°C° 0 mm 1 mps 734 mmHg 47%
    14:00 +20°C° 0 mm 1 mps 734 mmHg 54%
    15:00 +19°C° 0 mm 1 mps 734 mmHg 60%
    16:00 +19°C° 0 mm 1 mps 734 mmHg 67%
    17:00 +16°C° 0 mm 1 mps 734 mmHg 72%
    18:00 +14°C° 0 mm 1 mps 734 mmHg 77%
    19:00 +13°C° 0 mm 1 mps 735 mmHg 82%
    20:00 +13°C° 0 mm 1 mps 735 mmHg 82%
    21:00 +12°C° 0 mm 1 mps 735 mmHg 83%
    22:00 +12°C° 0 mm 1 mps 735 mmHg 83%
    23:00 +12°C° 0 mm 1 mps 735 mmHg 82%

    Tomorrow, 21 October, Saturday

    Time Temperature Precipitation Wind Pressure Humidity
    00:00 +12°C° 0 mm 1 mps 735 mmHg 82%
    01:00 +12°C° 0 mm 1 mps 735 mmHg 81%
    02:00 +12°C° 0 mm 1 mps 735 mmHg 81%
    03:00 +12°C° 0 mm 1 mps 735 mmHg 80%
    04:00 +11°C° 0 mm 1 mps 735 mmHg 80%
    05:00 +12°C° 0 mm 1 mps 735 mmHg 79%
    06:00 +12°C° 0 mm 1 mps 735 mmHg 78%
    07:00 +12°C° 0 mm 1 mps 735 mmHg 78%
    08:00 +14°C° 0 mm 1 mps 735 mmHg 72%
    09:00 +15°C° 0 mm 1 mps 735 mmHg 67%
    10:00 +18°C° 0 mm 1 mps 735 mmHg 62%
    11:00 +19°C° 0 mm 1 mps 735 mmHg 59%
    12:00 +20°C° 0 mm 1 mps 734 mmHg 57%
    13:00 +21°C° 0 mm 1 mps 734 mmHg 54%
    14:00 +21°C° 0 mm 1 mps 734 mmHg 59%
    15:00 +20°C° 0 mm 1 mps 733 mmHg 64%
    16:00 +19°C° 0 mm 1 mps 733 mmHg 70%
    17:00 +18°C° 0 mm 1 mps 733 mmHg 73%
    18:00 +16°C° 0 mm 1 mps 733 mmHg 77%
    19:00 +14°C° 0 mm 1 mps 733 mmHg 81%
    20:00 +14°C° 0 mm 1 mps 733 mmHg 81%
    21:00 +14°C° 0 mm 1 mps 733 mmHg 81%
    22:00 +14°C° 0 mm 1 mps 733 mmHg 82%
    23:00 +13°C° 0 mm 1 mps 733 mmHg 82%

    Day after tomorrow, 22 October, Sunday

    Time Temperature Precipitation Wind Pressure Humidity
    00:00 +13°C° 0 mm 1 mps 733 mmHg 82%
    01:00 +13°C° 0 mm 1 mps 734 mmHg 83%
    02:00 +13°C° 0.2 mm 2 mps 734 mmHg 85%
    03:00 +12°C° 0.2 mm 3 mps 734 mmHg 87%
    04:00 +12°C° 0.2 mm 3 mps 734 mmHg 90%
    05:00 +11°C° 0.2 mm 3 mps 734 mmHg 91%
    06:00 +11°C° 0.2 mm 3 mps 734 mmHg 92%
    07:00 +12°C° 0.2 mm 2 mps 734 mmHg 93%
    08:00 +12°C° 0.4 mm 2 mps 734 mmHg 92%
    09:00 +12°C° 0.4 mm 2 mps 734 mmHg 92%
    10:00 +12°C° 0.4 mm 2 mps 734 mmHg 91%
    11:00 +12°C° 0.9 mm 2 mps 734 mmHg 91%
    12:00 +10°C° 0.9 mm 2 mps 733 mmHg 92%
    13:00 +10°C° 0.9 mm 3 mps 733 mmHg 92%
    14:00 +10°C° 1.5 mm 2 mps 733 mmHg 93%
    15:00 +10°C° 1.5 mm 2 mps 733 mmHg 93%
    16:00 +9°C° 1.5 mm 2 mps 733 mmHg 94%
    17:00 +9°C° 1 mm 2 mps 733 mmHg 94%
    18:00 +8°C° 1 mm 2 mps 734 mmHg 94%
    19:00 +8°C° 1 mm 2 mps 734 mmHg 94%
    20:00 +8°C° 0.4 mm 2 mps 734 mmHg 93%
    21:00 +8°C° 0.4 mm 2 mps 734 mmHg 93%
    22:00 +7°C° 0.4 mm 2 mps 734 mmHg 93%
    23:00 +7°C° 0.1 mm 2 mps 734 mmHg 93%

    23 October, Monday

    Time Temperature Precipitation Wind Pressure Humidity
    00:00 +7°C° 0.1 mm 2 mps 734 mmHg 93%
    01:00 +7°C° 0.1 mm 3 mps 733 mmHg 93%
    02:00 +7°C° 0.1 mm 3 mps 733 mmHg 93%
    03:00 +7°C° 0.1 mm 3 mps 733 mmHg 93%
    04:00 +6°C° 0.1 mm 4 mps 733 mmHg 93%
    05:00 +7°C° 0.1 mm 3 mps 733 mmHg 93%
    06:00 +7°C° 0.1 mm 3 mps 733 mmHg 94%
    07:00 +5°C° 0.1 mm 3 mps 733 mmHg 94%
    08:00 +7°C° 0.1 mm 3 mps 733 mmHg 91%
    09:00 +6°C° 0.1 mm 4 mps 733 mmHg 89%
    10:00 +7°C° 0.1 mm 4 mps 733 mmHg 86%
    11:00 +7°C° 0.1 mm 4 mps 733 mmHg 85%
    12:00 +8°C° 0.1 mm 4 mps 733 mmHg 84%
    13:00 +8°C° 0.1 mm 4 mps 733 mmHg 83%
    14:00 +8°C° 0.1 mm 4 mps 733 mmHg 83%
    15:00 +8°C° 0.1 mm 4 mps 733 mmHg 84%
    16:00 +8°C° 0.1 mm 4 mps 734 mmHg 84%
    17:00 +8°C° 0.1 mm 3 mps 734 mmHg 87%
    18:00 +8°C° 0.1 mm 3 mps 734 mmHg 90%
    19:00 +8°C° 0.1 mm 3 mps 735 mmHg 93%
    20:00 +8°C° 0.1 mm 3 mps 735 mmHg 94%
    21:00 +7°C° 0.1 mm 3 mps 735 mmHg 95%
    22:00 +7°C° 0.1 mm 3 mps 735 mmHg 95%
    23:00 +7°C° 0 mm 3 mps 735 mmHg 95%

    24 October, Tuesday

    Time Temperature Precipitation Wind Pressure Humidity
    00:00 +7°C° 0 mm 3 mps 735 mmHg 95%
    01:00 +7°C° 0 mm 3 mps 735 mmHg 95%
    02:00 +8°C° 0.1 mm 3 mps 735 mmHg 95%
    03:00 +8°C° 0.1 mm 3 mps 736 mmHg 94%
    04:00 +8°C° 0.1 mm 3 mps 736 mmHg 94%
    05:00 +8°C° 0.1 mm 2 mps 736 mmHg 95%
    06:00 +7°C° 0.1 mm 2 mps 736 mmHg 96%
    07:00 +7°C° 0.1 mm 2 mps 736 mmHg 96%
    08:00 +8°C° 0.1 mm 2 mps 737 mmHg 93%
    09:00 +9°C° 0.1 mm 2 mps 737 mmHg 89%
    10:00 +10°C° 0.1 mm 2 mps 737 mmHg 86%
    11:00 +12°C° 0.1 mm 2 mps 737 mmHg 85%
    12:00 +11°C° 0.1 mm 3 mps 737 mmHg 84%
    13:00 +11°C° 0.1 mm 3 mps 737 mmHg 83%
    14:00 +12°C° 0.1 mm 2 mps 737 mmHg 84%
    15:00 +12°C° 0.1 mm 2 mps 737 mmHg 85%
    16:00 +12°C° 0.1 mm 2 mps 738 mmHg 86%
    17:00 +11°C° 0 mm 1 mps 738 mmHg 89%
    18:00 +10°C° 0 mm 1 mps 738 mmHg 92%
    19:00 +10°C° 0 mm 1 mps 739 mmHg 94%
    20:00 +10°C° 0 mm 1 mps 739 mmHg 94%
    21:00 +9°C° 0 mm 1 mps 739 mmHg 94%
    22:00 +9°C° 0 mm 1 mps 740 mmHg 94%
    23:00 +9°C° 0 mm 1 mps 740 mmHg 94%

    25 October, Wednesday

    Time Temperature Precipitation Wind Pressure Humidity
    00:00 +9°C° 0 mm 1 mps 740 mmHg 94%
    01:00 +9°C° 0 mm 1 mps 740 mmHg 94%
    02:00 +9°C° 0 mm 1 mps 740 mmHg 94%
    03:00 +9°C° 0 mm 1 mps 740 mmHg 94%
    04:00 +9°C° 0 mm 1 mps 740 mmHg 94%
    05:00 +10°C° 0 mm 1 mps 740 mmHg 94%
    06:00 +10°C° 0 mm 1 mps 740 mmHg 94%
    07:00 +9°C° 0 mm 0 mps 740 mmHg 94%
    08:00 +11°C° 0 mm 1 mps 741 mmHg 91%
    09:00 +12°C° 0 mm 1 mps 741 mmHg 89%
    10:00 +14°C° 0 mm 1 mps 741 mmHg 87%
    11:00 +15°C° 0 mm 1 mps 741 mmHg 83%
    12:00 +16°C° 0 mm 1 mps 741 mmHg 80%
    13:00 +18°C° 0 mm 1 mps 740 mmHg 77%
    14:00 +16°C° 0 mm 1 mps 740 mmHg 80%
    15:00 +15°C° 0 mm 0 mps 740 mmHg 83%
    16:00 +14°C° 0 mm 0 mps 740 mmHg 85%
    17:00 +13°C° 0 mm 0 mps 740 mmHg 88%
    18:00 +12°C° 0 mm 0 mps 741 mmHg 91%
    19:00 +11°C° 0 mm 0 mps 741 mmHg 94%
    20:00 +11°C° 0 mm 1 mps 741 mmHg 93%
    21:00 +11°C° 0 mm 1 mps 742 mmHg 93%
    22:00 +11°C° 0 mm 1 mps 742 mmHg 93%
    23:00 +11°C° 0 mm 1 mps 742 mmHg 93%
    Show more